Tri-Cities, TN

5:16 AM EDT on June 25, 2017 (GMT -0400)
Tri-Cities Regional Tennessee / Virginia

Weather History for KTRI - July, 2014

Change the Weather History Date:

Saturday, July 19, 2014

  Actual Average Record
Temperature  
Mean Temperature 71 °F 75 °F  
Max Temperature 77 °F 86 °F 95 °F (1977)
Min Temperature 64 °F 64 °F 54 °F (2009)
Degree Days  
Heating Degree Days 0 0  
Month to date heating degree days 0 0  
Since 1 June heating degree days 0 11  
Since 1 July heating degree days 0 0  
Cooling Degree Days 6 10  
Month to date cooling degree days 170 187  
Year to date cooling degree days 600 466  
Since 1 June cooling degree days 466 393  
Growing Degree Days 20 (Base 50)    
Moisture  
Dew Point 62 °F    
Average Humidity 77    
Maximum Humidity 93    
Minimum Humidity 60    
Precipitation  
Precipitation 0.77 in 0.16 in 1.53 in (2012)
Month to date precipitation 3.11 2.87  
Year to date precipitation 18.69 24.16  
Snow  
Snow 0.00 in 0.00 in - ()
Month to date snowfall 0.0 0.0  
Since 1 June snowfall 0.0 0.0  
Since 1 July snowfall 0.0 0.0  
Snow Depth 0.00 in    
Sea Level Pressure  
Sea Level Pressure 30.08 in    
Wind  
Wind Speed 3 mph (ESE)    
Max Wind Speed 13 mph    
Max Gust Speed 27 mph    
Visibility 6 miles    
Events Rain    
T = Trace of Precipitation, MM = Missing Value Source: NWS Daily Summary

Daily Weather History Graph

Daily Weather History Graph

Search for Another Location

Airport or City:

Trip Planner

Search our weather history database for the weather conditions in past years. The results will help you decide how hot, cold, wet, or windy it might be!

Date:

Astronomy

Jul. 19, 2014 Rise Set
Actual Time 6:26 AM EDT 8:45 PM EDT
Civil Twilight 5:56 AM EDT 9:14 PM EDT
Nautical Twilight 5:20 AM EDT 9:50 PM EDT
Astronomical Twilight 4:40 AM EDT 10:30 PM EDT
Moon 12:55 AM EDT (7/19) 2:29 PM EDT (7/19)
Length of Visible Light 15h 18m
Length of Day
14h 19m
Last Quarter, 44% of the Moon is Illuminated
Jul 19
Last Quarter
Jul 26
New
Aug 3
First Quarter
Aug 10
Full
Aug 17
Last Quarter

Hourly Weather History & Observations

Time (EDT) Temp. Dew Point Humidity Pressure Visibility Wind Dir Wind Speed Gust Speed Precip Events Conditions
12:53 AM 64.9 °F 62.1 °F 90% 30.12 in 3.0 mi Calm Calm - 0.02 in Rain Light Rain
1:53 AM 64.0 °F 62.1 °F 93% 30.10 in 3.0 mi Calm Calm - 0.05 in Rain Light Rain
2:53 AM 64.0 °F 61.0 °F 90% 30.08 in 3.0 mi Calm Calm - 0.04 in Rain Light Rain
3:53 AM 64.0 °F 61.0 °F 90% 30.07 in 5.0 mi NE 3.5 mph - 0.02 in Rain Light Rain
4:53 AM 64.0 °F 61.0 °F 90% 30.06 in 3.0 mi NE 3.5 mph - 0.05 in Rain Rain
5:53 AM 64.0 °F 61.0 °F 90% 30.07 in 3.0 mi Calm Calm - 0.08 in Rain Rain
6:03 AM 64.0 °F 61.0 °F 90% 30.13 in 2.0 mi Calm Calm - 0.04 in Rain Rain
6:22 AM 64.0 °F 61.0 °F 90% 30.14 in 3.0 mi Calm Calm - 0.09 in Rain Rain
6:53 AM 64.0 °F 61.0 °F 90% 30.08 in 3.0 mi Calm Calm - 0.15 in Rain Rain
7:53 AM 64.0 °F 62.1 °F 93% 30.07 in 3.0 mi Calm Calm - 0.09 in Rain Light Rain
8:53 AM 66.9 °F 63.0 °F 87% 30.09 in 8.0 mi Calm Calm - 0.02 in Rain Light Rain
9:53 AM 68.0 °F 63.0 °F 84% 30.09 in 9.0 mi Calm Calm - 0.03 in Rain Light Rain
10:53 AM 66.9 °F 63.0 °F 87% 30.10 in 3.0 mi Calm Calm - 0.07 in Rain Light Rain
11:24 AM 66.9 °F 64.0 °F 90% 30.16 in 2.0 mi Calm Calm - 0.11 in Rain Heavy Rain
11:36 AM 66.9 °F 64.0 °F 90% 30.15 in 2.0 mi East 5.8 mph - 0.15 in Rain Rain
11:46 AM 66.9 °F 64.0 °F 90% 30.15 in 2.0 mi Variable 3.5 mph - 0.17 in Rain Rain
11:53 AM 66.9 °F 64.0 °F 90% 30.09 in 2.5 mi Variable 4.6 mph - 0.18 in Rain Light Rain
12:36 PM 68.0 °F 64.0 °F 87% 30.13 in 10.0 mi ENE 4.6 mph - 0.00 in Rain Light Rain
12:53 PM 70.0 °F 64.0 °F 81% 30.06 in 10.0 mi East 5.8 mph - 0.00 in   Mostly Cloudy
1:53 PM 73.0 °F 64.0 °F 73% 30.05 in 10.0 mi East 5.8 mph - 0.00 in   Overcast
2:53 PM 73.9 °F 62.1 °F 66% 30.03 in 10.0 mi SE 6.9 mph - N/A   Overcast
3:53 PM 75.0 °F 60.1 °F 60% 30.03 in 10.0 mi SSE 8.1 mph - N/A   Overcast
4:53 PM 75.9 °F 60.1 °F 58% 30.01 in 10.0 mi SSE 10.4 mph - N/A   Mostly Cloudy
5:53 PM 75.0 °F 61.0 °F 62% 30.01 in 10.0 mi SE 9.2 mph - N/A   Mostly Cloudy
6:53 PM 73.9 °F 60.1 °F 62% 30.01 in 10.0 mi SE 5.8 mph - N/A   Mostly Cloudy
7:53 PM 73.0 °F 61.0 °F 66% 30.02 in 10.0 mi SE 5.8 mph - N/A   Mostly Cloudy
8:53 PM 71.1 °F 60.1 °F 68% 30.03 in 10.0 mi ESE 3.5 mph - N/A   Overcast
9:53 PM 70.0 °F 59.0 °F 68% 30.04 in 10.0 mi ESE 4.6 mph - N/A   Mostly Cloudy
10:53 PM 68.0 °F 59.0 °F 73% 30.11 in 10.0 mi ESE 3.5 mph - N/A   Mostly Cloudy
11:53 PM 69.1 °F 59.0 °F 70% 30.03 in 10.0 mi Calm Calm - N/A   Overcast